TimeCDT,TemperatureF,Dew PointF,Humidity,Sea Level PressureIn,VisibilityMPH,Wind Direction,Wind SpeedMPH,Gust SpeedMPH,PrecipitationIn,Events,Conditions,WindDirDegrees,DateUTC
12:15 AM,54.9,50.4,85,30.04,10.0,NNW,12.7,20.7,N/A,,Overcast,340,2012-10-27 05:15:00
12:35 AM,54.3,50.2,86,30.04,10.0,North,12.7,18.4,N/A,,Overcast,350,2012-10-27 05:35:00
12:55 AM,53.8,50.0,87,30.03,10.0,North,10.4,18.4,N/A,,Overcast,350,2012-10-27 05:55:00
1:15 AM,53.6,49.6,86,30.04,10.0,North,11.5,18.4,N/A,,Overcast,360,2012-10-27 06:15:00
1:35 AM,53.6,49.1,85,30.04,10.0,North,11.5,17.3,N/A,,Overcast,350,2012-10-27 06:35:00
1:55 AM,53.2,48.4,84,30.03,10.0,North,13.8,20.7,N/A,,Overcast,350,2012-10-27 06:55:00
2:15 AM,52.9,48.2,84,30.03,10.0,North,10.4,19.6,N/A,,Overcast,350,2012-10-27 07:15:00
2:55 AM,52.7,47.5,82,30.03,10.0,North,12.7,17.3,N/A,,Overcast,360,2012-10-27 07:55:00
3:15 AM,52.3,46.8,81,30.02,10.0,North,12.7,17.3,N/A,,Overcast,360,2012-10-27 08:15:00
3:35 AM,51.8,46.0,81,30.02,10.0,North,9.2,-,N/A,,Overcast,360,2012-10-27 08:35:00
3:55 AM,51.8,46.4,82,30.02,10.0,North,6.9,-,N/A,,Overcast,350,2012-10-27 08:55:00
4:15 AM,51.6,46.4,82,30.02,10.0,North,10.4,16.1,N/A,,Overcast,350,2012-10-27 09:15:00
4:35 AM,51.4,46.4,83,30.02,10.0,North,8.1,-,N/A,,Overcast,360,2012-10-27 09:35:00
4:55 AM,51.3,46.0,82,30.02,10.0,North,10.4,-,N/A,,Overcast,360,2012-10-27 09:55:00
5:15 AM,51.1,45.9,82,30.03,10.0,North,6.9,-,N/A,,Overcast,350,2012-10-27 10:15:00
5:35 AM,50.9,45.1,81,30.03,10.0,North,8.1,16.1,N/A,,Overcast,360,2012-10-27 10:35:00
5:55 AM,50.9,45.1,81,30.03,10.0,North,9.2,-,N/A,,Overcast,360,2012-10-27 10:55:00
6:15 AM,50.9,45.0,80,30.03,10.0,North,10.4,-,N/A,,Overcast,350,2012-10-27 11:15:00
6:35 AM,50.2,44.6,81,30.03,10.0,North,8.1,-,N/A,,Overcast,360,2012-10-27 11:35:00
6:55 AM,50.2,44.6,81,30.04,10.0,North,5.8,-,N/A,,Overcast,10,2012-10-27 11:55:00
7:15 AM,50.0,44.2,81,30.04,10.0,North,10.4,18.4,N/A,,Overcast,10,2012-10-27 12:15:00
7:35 AM,50.0,44.6,82,30.05,10.0,North,-9999.0,-,N/A,,Overcast,0,2012-10-27 12:35:00
7:55 AM,50.0,44.6,82,30.05,10.0,North,10.4,-,N/A,,Overcast,350,2012-10-27 12:55:00
8:15 AM,50.2,44.8,82,30.06,10.0,North,10.4,-,N/A,,Overcast,360,2012-10-27 13:15:00
8:35 AM,50.2,44.8,82,30.06,10.0,North,9.2,-,N/A,,Overcast,360,2012-10-27 13:35:00
8:55 AM,50.2,45.0,82,30.06,10.0,North,10.4,-,N/A,,Overcast,360,2012-10-27 13:55:00
9:35 AM,50.7,44.8,80,30.07,10.0,North,10.4,19.6,N/A,,Overcast,360,2012-10-27 14:35:00
10:15 AM,51.6,45.1,79,30.07,10.0,NNW,11.5,18.4,N/A,,Overcast,340,2012-10-27 15:15:00
10:35 AM,52.2,45.1,77,30.08,10.0,North,8.1,-,N/A,,Overcast,360,2012-10-27 15:35:00
10:55 AM,53.1,45.5,75,30.08,10.0,North,10.4,17.3,N/A,,Overcast,350,2012-10-27 15:55:00
11:15 AM,53.8,45.5,74,30.08,10.0,North,6.9,-,N/A,,Overcast,350,2012-10-27 16:15:00
11:35 AM,54.7,45.5,71,30.07,10.0,NW,9.2,17.3,N/A,,Overcast,320,2012-10-27 16:35:00
11:55 AM,54.7,45.3,71,30.07,10.0,NNW,11.5,17.3,N/A,,Overcast,330,2012-10-27 16:55:00
12:15 PM,56.8,45.7,66,30.05,10.0,North,10.4,17.3,N/A,,Mostly Cloudy,10,2012-10-27 17:15:00
12:35 PM,58.1,46.0,64,30.04,10.0,NNW,9.2,19.6,N/A,,Scattered Clouds,340,2012-10-27 17:35:00
12:55 PM,59.5,46.2,61,30.03,10.0,North,10.4,18.4,N/A,,Clear,350,2012-10-27 17:55:00
1:15 PM,60.8,46.6,59,30.01,10.0,NNW,10.4,18.4,N/A,,Clear,340,2012-10-27 18:15:00
1:35 PM,61.9,46.9,58,30.00,10.0,NNW,8.1,-,N/A,,Clear,340,2012-10-27 18:35:00
1:55 PM,62.4,46.8,57,29.99,10.0,North,11.5,19.6,N/A,,Clear,360,2012-10-27 18:55:00
2:15 PM,62.6,47.3,57,29.99,10.0,NNW,12.7,19.6,N/A,,Clear,330,2012-10-27 19:15:00
2:35 PM,63.0,46.8,55,29.98,10.0,NNW,12.7,21.9,N/A,,Clear,330,2012-10-27 19:35:00
2:55 PM,63.1,47.1,56,29.98,10.0,NNW,12.7,17.3,N/A,,Clear,340,2012-10-27 19:55:00
3:15 PM,62.8,46.8,56,29.97,10.0,North,15.0,20.7,N/A,,Clear,350,2012-10-27 20:15:00
3:35 PM,62.4,46.6,56,29.98,10.0,North,11.5,-,N/A,,Clear,360,2012-10-27 20:35:00
3:55 PM,61.2,45.7,57,29.98,10.0,North,13.8,17.3,N/A,,Clear,360,2012-10-27 20:55:00
4:15 PM,61.2,45.9,57,29.98,10.0,North,9.2,18.4,N/A,,Clear,350,2012-10-27 21:15:00
4:35 PM,60.8,45.9,58,29.98,10.0,NNW,15.0,18.4,N/A,,Clear,340,2012-10-27 21:35:00
5:15 PM,59.9,45.3,59,29.98,10.0,North,10.4,18.4,N/A,,Clear,350,2012-10-27 22:15:00
5:35 PM,59.4,45.0,59,29.98,10.0,North,10.4,-,N/A,,Clear,360,2012-10-27 22:35:00
5:55 PM,58.5,44.4,60,29.99,10.0,North,8.1,16.1,N/A,,Clear,10,2012-10-27 22:55:00
6:15 PM,57.2,44.6,63,29.99,10.0,North,6.9,-,N/A,,Clear,10,2012-10-27 23:15:00
6:35 PM,55.6,45.1,68,30.00,10.0,North,6.9,-,N/A,,Clear,350,2012-10-27 23:35:00
6:55 PM,55.6,44.8,67,30.00,10.0,North,5.8,-,N/A,,Clear,350,2012-10-27 23:55:00
7:15 PM,54.1,44.6,70,30.01,10.0,North,5.8,-,N/A,,Clear,360,2012-10-28 00:15:00
7:35 PM,53.4,44.6,72,30.02,10.0,North,6.9,-,N/A,,Clear,350,2012-10-28 00:35:00
7:55 PM,53.2,44.1,71,30.03,10.0,NNW,4.6,-,N/A,,Clear,340,2012-10-28 00:55:00
8:15 PM,51.4,43.7,75,30.03,10.0,Calm,Calm,-,N/A,,Clear,0,2012-10-28 01:15:00
8:35 PM,50.9,44.4,78,30.04,10.0,NW,3.5,-,N/A,,Clear,320,2012-10-28 01:35:00
8:55 PM,50.4,43.9,78,30.05,10.0,NNW,5.8,-,N/A,,Clear,330,2012-10-28 01:55:00
9:15 PM,51.6,43.0,72,30.05,10.0,North,8.1,-,N/A,,Clear,350,2012-10-28 02:15:00
9:35 PM,52.7,40.8,64,30.06,10.0,North,10.4,17.3,N/A,,Clear,350,2012-10-28 02:35:00
9:55 PM,52.3,40.1,63,30.07,10.0,North,8.1,-,N/A,,Clear,350,2012-10-28 02:55:00
10:15 PM,51.6,40.1,65,30.07,10.0,North,8.1,-,N/A,,Clear,350,2012-10-28 03:15:00
10:35 PM,52.0,39.2,62,30.08,10.0,North,8.1,-,N/A,,Clear,350,2012-10-28 03:35:00
10:55 PM,51.3,39.2,63,30.08,10.0,North,10.4,-,N/A,,Clear,350,2012-10-28 03:55:00
11:15 PM,51.1,38.8,63,30.08,10.0,North,10.4,-,N/A,,Clear,360,2012-10-28 04:15:00
11:35 PM,49.6,39.2,67,30.08,10.0,North,8.1,-,N/A,,Clear,350,2012-10-28 04:35:00
11:55 PM,49.1,39.2,69,30.08,10.0,North,5.8,-,N/A,,Clear,350,2012-10-28 04:55:00